THORAD AGENA D DEB, 4754

Orbit data source: Space-Track

THORAD AGENA D DEB, 4754 is space debris in SSO originally from a launch on Wed, 08 Apr 1970 UTC launched from the Air Force Western Test Range (AFWTR). Debris objects in space refer to the collection of defunct objects orbiting the Earth. Examples of debris include non-operational satellites, rocket bodies, and fragments generated from explosions, collisions, or faulty payload assembly.

Loading next visibility...
Identifier
4754, 1970-025DC
Orbit
SSO
Country
Flag of USUS
Related business
Manufacturer
Unknown
Mission
Spacecraft
Bus & Motor
Unknown
Mass
Unknown
Launch date (UTC)
1970-04-08 (56 years ago)
Launch vehicle
Unknown
Launch site
Air Force Western Test Range (AFWTR)
Object type
Payload
Rocket body
Debris
Shape & HBR
Unknown shape, 0.1 m
Radar Cross Section
Medium (>0.1 m² and <1 m²)

Expand to show TLE details & history
Last TLE update: 10 hours ago

TLE from 10 hours ago
0 THORAD AGENA D DEB
1 04754U 70025DC  26208.40283935  .00006365  00000-0  21629-2 0  9998
2 04754  99.5894 176.4511 0011892 141.0437 219.1605 14.36961418839582
Epoch: 2026-07-27T09:40Z
TLE epoch observation values (Epoch: 2026-07-27T09:40:05.319Z)
Latitude
-0.00003°
Longitude
86.34202°
Altitude
778.059 km
Speed
7.462 km/s
True Right ascension
11h 45m 48s
True Declination
0° 00' 00"
Sunlit
Object was in daylight at epoch
Visualization orbit readout
Latitude
Unknown
Longitude
Unknown
Altitude
Unknown
Speed
Unknown
Apparent Right ascension
Unknown
Apparent Declination
Unknown
Sunlit
N/A
Visualization observer readout
Local Sidereal Time
08:33:10
Azimuth
Unknown
Elevation
Unknown
Doppler factor
Unknown
Orbital elements
Apogee altitude
774.232 km
Perigee altitude
757.241 km
Semi-major axis
7,143.873 km
Eccentricity
0.00119
Inclination
99.5894°
RAAN
176.4511°
Arg. of periapsis
141.0437°
True anomaly
219.07454°
Mean anomaly
219.1605°
Eccentric anomaly
219.11751°
Mean motion
3.59453 °/min
Orbital period
100.15 mins
BSTAR
0.0021629
Loading maneuver chart data...
Computing Atmospheric mass density...

Documentation

Showing up to 5 results
|